TimeEST,TemperatureF,Dew PointF,Humidity,Sea Level PressureIn,VisibilityMPH,Wind Direction,Wind SpeedMPH,Gust SpeedMPH,PrecipitationIn,Events,Conditions,WindDirDegrees,DateUTC
12:50 AM,10.4,10.4,100,-9999,0.1,South,42.6,52.9,N/A,Fog-Snow,Light Snow,170,2012-12-10 05:50:00
1:52 AM,15.8,15.8,100,-9999,0.0,South,48.3,52.9,N/A,Fog-Snow,Snow Grains,170,2012-12-10 06:52:00
2:55 AM,15.8,15.8,100,-9999,0.0,South,50.6,58.7,N/A,Fog-Snow,Light Snow Grains,170,2012-12-10 07:55:00
3:55 AM,17.6,17.6,100,-9999,0.0,South,55.2,-,N/A,Fog-Snow,Light Ice Pellets,180,2012-12-10 08:55:00
4:57 AM,19.4,19.4,100,-9999,0.0,South,49.5,56.4,N/A,Fog-Snow,Light Ice Pellets,180,2012-12-10 09:57:00
5:59 AM,21.2,21.2,100,-9999,0.0,South,41.4,47.2,N/A,Fog-Snow,Light Ice Pellets,180,2012-12-10 10:59:00
6:48 AM,21.2,21.2,100,-9999,0.1,South,39.1,43.7,N/A,Fog-Snow,Light Ice Pellets,180,2012-12-10 11:48:00
7:48 AM,23.0,23.0,100,-9999,0.1,South,36.8,43.7,N/A,Fog-Snow,Light Ice Pellets,180,2012-12-10 12:48:00
8:56 AM,26.6,26.6,100,-9999,0.1,SSW,38.0,-,N/A,Fog-Snow,Light Ice Pellets,200,2012-12-10 13:56:00
9:47 AM,28.4,28.4,100,-9999,0.1,SW,36.8,51.8,N/A,Fog-Rain,Light Freezing Rain,220,2012-12-10 14:47:00
10:51 AM,32.0,32.0,100,-9999,0.1,WSW,47.2,66.7,N/A,Fog-Rain,Light Rain,240,2012-12-10 15:51:00
11:50 AM,33.8,33.8,100,-9999,0.1,WSW,63.3,81.7,N/A,Fog-Rain,Light Rain,240,2012-12-10 16:50:00
12:51 PM,33.8,33.8,100,-9999,0.1,WSW,63.3,74.8,N/A,Fog-Rain,Light Rain,250,2012-12-10 17:51:00
1:47 PM,33.8,33.8,100,-9999,0.1,West,55.2,62.1,N/A,Fog-Rain,Light Rain,260,2012-12-10 18:47:00
2:48 PM,33.8,33.8,100,-9999,0.1,West,56.4,62.1,N/A,Fog-Rain,Light Rain,260,2012-12-10 19:48:00
3:47 PM,33.8,33.8,100,-9999,0.1,West,46.0,-,N/A,Fog-Rain,Light Rain,260,2012-12-10 20:47:00
4:47 PM,33.8,33.8,100,-9999,0.0,West,50.6,57.5,N/A,Fog-Rain,Light Rain Showers,260,2012-12-10 21:47:00
5:51 PM,33.8,33.8,100,-9999,0.0,West,56.4,62.1,N/A,Fog-Rain,Light Rain,260,2012-12-10 22:51:00
6:49 PM,33.8,33.8,100,-9999,0.0,WSW,57.5,65.6,N/A,Fog-Rain,Light Rain,250,2012-12-10 23:49:00
7:55 PM,33.8,33.8,100,-9999,0.0,WSW,46.0,52.9,N/A,Fog-Rain,Light Rain,250,2012-12-11 00:55:00
8:47 PM,33.8,33.8,100,-9999,0.0,West,44.9,52.9,N/A,Fog-Rain,Light Rain,260,2012-12-11 01:47:00
9:58 PM,26.6,26.6,100,-9999,0.0,NW,40.3,44.9,N/A,Fog,Light Ice Pellets,310,2012-12-11 02:58:00
10:56 PM,24.8,24.8,100,-9999,0.0,NW,43.7,-,N/A,Fog,Light Ice Pellets,310,2012-12-11 03:56:00
11:57 PM,21.2,21.2,100,-9999,0.0,NW,47.2,52.9,N/A,Fog-Snow,Light Ice Pellets,310,2012-12-11 04:57:00